User: anonymous
Location: Unspecified
(0.0000°N, 0.0000°E)
Time: 14:13:53
(UTC+02:00)
Language:

Cosmos 1538 Rocket - Orbit

View from above orbital plane
View from above orbital plane
View from above satellite
View from above satellite

Ground track
Ground track

The orbit data is extracted from the following two-line orbital elements,

1 14760U 84019B   14274.10967216  .00000219  00000-0  84857-4 0  4331
2 14760 074.0429 137.8013 0028853 241.9927 234.3118 14.35539688601493
Epoch (UTC): 01 October 2014 02:37:55
Eccentricity: 0.0028853
inclination: 74.0429°
perigee height: 752 km
apogee height: 794 km
right ascension of ascending node: 137.8013°
argument of perigee: 241.9927°
revolutions per day: 14.35539688
mean anomaly at epoch: 234.3118°
orbit number at epoch: 60149

The dashed part of the orbit path shows where the satellite is in the earth's shadow,  

DLR